| time (UTC) | temp C | wind direction | speed KPH | gust KPH | rain 1hr cm | rain 24hr cm | rain mn cm | humidity % | barometer mb |
| 20260507114522 | 6 | 157 | 4.8 | 11.3 | 0.00 | 0.03 | 0.00 | 83 | 1018.1 |
| 20260507113031 | 6 | 172 | 4.8 | 11.3 | 0.00 | 0.03 | 0.00 | 85 | 1018.0 |
| 20260507111523 | 5 | 175 | 4.8 | 8.0 | 0.00 | 0.03 | 0.00 | 85 | 1018.0 |
| 20260507110023 | 5 | 172 | 4.8 | 8.0 | 0.00 | 0.03 | 0.00 | 85 | 1017.9 |
| 20260507104519 | 6 | 171 | 1.6 | 8.0 | 0.00 | 0.03 | 0.00 | 84 | 1017.8 |
| 20260507103017 | 6 | 165 | 4.8 | 9.7 | 0.00 | 0.03 | 0.00 | 85 | 1017.8 |
| 20260507101524 | 6 | 83 | 1.6 | 4.8 | 0.00 | 0.03 | 0.00 | 86 | 1017.8 |
| 20260507100021 | 6 | 59 | 0.0 | 3.2 | 0.00 | 0.03 | 0.00 | 86 | 1017.8 |
| 20260507094514 | 6 | 58 | 0.0 | 3.2 | 0.00 | 0.03 | 0.00 | 87 | 1017.8 |
| 20260507093032 | 6 | 42 | 0.0 | 3.2 | 0.00 | 0.03 | 0.00 | 87 | 1017.9 |
| 20260507091513 | 6 | 42 | 1.6 | 4.8 | 0.00 | 0.03 | 0.00 | 88 | 1017.8 |
| 20260507090014 | 6 | 42 | 0.0 | 1.6 | 0.00 | 0.03 | 0.00 | 89 | 1017.9 |
| 20260507084510 | 6 | 42 | 0.0 | 3.2 | 0.00 | 0.03 | 0.00 | 89 | 1018.1 |
| 20260507083019 | 5 | 42 | 0.0 | 3.2 | 0.00 | 0.03 | 0.00 | 89 | 1017.9 |
| 20260507081511 | 5 | 42 | 0.0 | 4.8 | 0.00 | 0.03 | 0.00 | 88 | 1017.8 |
| 20260507080007 | 5 | 40 | 0.0 | 1.6 | 0.00 | 0.03 | 0.00 | 87 | 1018.0 |
| 20260507074515 | 5 | 40 | 0.0 | 1.6 | 0.00 | 0.03 | 0.00 | 87 | 1017.8 |
| 20260507073005 | 5 | 40 | 0.0 | 1.6 | 0.00 | 0.03 | 0.00 | 87 | 1018.0 |
| 20260507071504 | 5 | 40 | 0.0 | 1.6 | 0.00 | 0.03 | 0.00 | 87 | 1018.2 |
| 20260507064559 | 5 | 40 | 0.0 | 0.0 | 0.00 | 0.03 | 0.00 | 85 | 1018.6 |
| 20260507063059 | 5 | 40 | 0.0 | 3.2 | 0.00 | 0.03 | 0.00 | 85 | 1018.8 |
| 20260507061555 | 5 | 40 | 0.0 | 0.0 | 0.00 | 0.03 | 0.00 | 85 | 1018.6 |
| 20260507060054 | 5 | 40 | 0.0 | 1.6 | 0.00 | 0.03 | 0.00 | 85 | 1018.8 |
| 20260507054603 | 5 | 40 | 0.0 | 3.2 | 0.00 | 0.03 | 0.00 | 85 | 1018.6 |
| 20260507053055 | 5 | 40 | 0.0 | 1.6 | 0.00 | 0.03 | 0.00 | 84 | 1018.6 |
| 20260507051549 | 6 | 40 | 0.0 | 1.6 | 0.00 | 0.03 | 0.00 | 83 | 1018.6 |
| 20260507050047 | 6 | 40 | 0.0 | 1.6 | 0.00 | 0.03 | 0.00 | 82 | 1018.5 |
| 20260507044546 | 6 | 40 | 0.0 | 1.6 | 0.00 | 0.03 | 0.03 | 82 | 1018.6 |
| 20260507043045 | 6 | 40 | 0.0 | 1.6 | 0.00 | 0.03 | 0.03 | 83 | 1018.5 |
| 20260507041546 | 6 | 40 | 0.0 | 0.0 | 0.00 | 0.03 | 0.03 | 83 | 1018.4 |
| 20260507040057 | 6 | 40 | 0.0 | 0.0 | 0.00 | 0.03 | 0.03 | 82 | 1018.5 |
| 20260507034554 | 6 | 40 | 0.0 | 1.6 | 0.00 | 0.08 | 0.03 | 81 | 1018.4 |
| 20260507033045 | 6 | 40 | 0.0 | 0.0 | 0.00 | 0.08 | 0.03 | 80 | 1018.4 |
| 20260507031544 | 7 | 40 | 0.0 | 1.6 | 0.00 | 0.08 | 0.03 | 79 | 1018.3 |
| 20260507030043 | 7 | 40 | 0.0 | 0.0 | 0.00 | 0.08 | 0.03 | 78 | 1018.3 |
| 20260507024543 | 7 | 40 | 0.0 | 0.0 | 0.00 | 0.23 | 0.03 | 76 | 1018.3 |
| 20260507023042 | 7 | 39 | 0.0 | 0.0 | 0.00 | 0.23 | 0.03 | 73 | 1018.1 |
| 20260507021545 | 8 | 39 | 0.0 | 0.0 | 0.00 | 0.23 | 0.03 | 73 | 1018.1 |
| 20260507020045 | 9 | 39 | 0.0 | 1.6 | 0.00 | 0.23 | 0.03 | 72 | 1017.7 |
| 20260507014542 | 10 | 39 | 0.0 | 0.0 | 0.00 | 0.25 | 0.03 | 68 | 1017.6 |
| 20260507013040 | 10 | 39 | 0.0 | 0.0 | 0.00 | 0.25 | 0.03 | 62 | 1017.5 |
| 20260507011546 | 12 | 39 | 0.0 | 1.6 | 0.00 | 0.25 | 0.03 | 59 | 1017.4 |
| 20260507010039 | 12 | 39 | 0.0 | 3.2 | 0.00 | 0.25 | 0.03 | 57 | 1017.3 |
| 20260507004541 | 13 | 38 | 0.0 | 8.0 | 0.00 | 0.25 | 0.03 | 56 | 1017.2 |
| 20260507003037 | 13 | 33 | 3.2 | 8.0 | 0.00 | 0.25 | 0.03 | 50 | 1017.1 |
| 20260507001548 | 14 | 36 | 3.2 | 14.5 | 0.00 | 0.25 | 0.03 | 46 | 1016.8 |
| 20260507000040 | 15 | 41 | 4.8 | 22.5 | 0.00 | 0.25 | 0.03 | 50 | 1016.7 |
| 20260506234543 | 15 | 346 | 1.6 | 19.3 | 0.00 | 0.25 | 0.03 | 48 | 1016.6 |
| 20260506233035 | 15 | 36 | 3.2 | 20.9 | 0.00 | 0.25 | 0.03 | 51 | 1016.6 |
| 20260506231537 | 15 | 343 | 4.8 | 19.3 | 0.00 | 0.25 | 0.03 | 47 | 1016.4 |
| 20260506230034 | 15 | 16 | 6.4 | 22.5 | 0.00 | 0.25 | 0.03 | 45 | 1016.6 |
| 20260506224534 | 16 | 27 | 9.7 | 17.7 | 0.00 | 0.25 | 0.03 | 45 | 1016.4 |
| 20260506223032 | 16 | 33 | 8.0 | 22.5 | 0.00 | 0.25 | 0.03 | 46 | 1016.4 |
| 20260506221532 | 16 | 42 | 3.2 | 17.7 | 0.00 | 0.25 | 0.03 | 47 | 1016.6 |
| 20260506220032 | 16 | 27 | 8.0 | 17.7 | 0.00 | 0.25 | 0.03 | 45 | 1016.6 |
| 20260506214531 | 16 | 318 | 6.4 | 17.7 | 0.00 | 0.25 | 0.03 | 49 | 1016.8 |
| 20260506213030 | 16 | 47 | 4.8 | 20.9 | 0.00 | 0.25 | 0.03 | 46 | 1016.6 |
| 20260506211531 | 16 | 54 | 4.8 | 14.5 | 0.00 | 0.25 | 0.03 | 47 | 1016.8 |
| 20260506210030 | 16 | 71 | 3.2 | 19.3 | 0.00 | 0.25 | 0.03 | 52 | 1016.9 |
| 20260506204533 | 16 | 48 | 4.8 | 20.9 | 0.00 | 0.25 | 0.03 | 48 | 1016.9 |
| 20260506203034 | 16 | 5 | 4.8 | 20.9 | 0.00 | 0.25 | 0.03 | 52 | 1017.1 |
| 20260506201527 | 16 | 252 | 8.0 | 20.9 | 0.00 | 0.25 | 0.03 | 46 | 1017.2 |
| 20260506200026 | 16 | 34 | 4.8 | 17.7 | 0.00 | 0.25 | 0.03 | 50 | 1017.4 |
| 20260506194525 | 15 | 333 | 6.4 | 20.9 | 0.00 | 0.25 | 0.03 | 49 | 1017.6 |
| 20260506193024 | 15 | 314 | 6.4 | 16.1 | 0.00 | 0.25 | 0.03 | 53 | 1017.7 |
| 20260506191523 | 15 | 13 | 8.0 | 17.7 | 0.00 | 0.25 | 0.03 | 47 | 1018.1 |
| 20260506190032 | 16 | 28 | 4.8 | 19.3 | 0.00 | 0.25 | 0.03 | 56 | 1018.2 |
| 20260506184522 | 15 | 44 | 8.0 | 19.3 | 0.00 | 0.25 | 0.03 | 49 | 1018.5 |
| 20260506183019 | 15 | 302 | 4.8 | 14.5 | 0.03 | 0.25 | 0.03 | 61 | 1018.2 |
| 20260506181520 | 14 | 28 | 4.8 | 24.1 | 0.03 | 0.25 | 0.03 | 55 | 1018.6 |
| 20260506180018 | 15 | 331 | 3.2 | 14.5 | 0.03 | 0.25 | 0.03 | 57 | 1018.8 |
| 20260506174518 | 12 | 320 | 8.0 | 20.9 | 0.03 | 0.25 | 0.03 | 57 | 1018.9 |
| 20260506173016 | 13 | 9 | 3.2 | 19.3 | 0.00 | 0.23 | 0.00 | 57 | 1019.1 |
| 20260506171517 | 14 | 5 | 9.7 | 22.5 | 0.00 | 0.23 | 0.00 | 55 | 1019.3 |
| 20260506170014 | 13 | 360 | 4.8 | 20.9 | 0.00 | 0.23 | 0.00 | 57 | 1019.2 |
| 20260506164514 | 14 | 24 | 1.6 | 17.7 | 0.00 | 0.23 | 0.00 | 62 | 1019.1 |
| 20260506163012 | 13 | 338 | 4.8 | 16.1 | 0.00 | 0.23 | 0.00 | 61 | 1018.6 |
| 20260506161507 | 12 | 47 | 4.8 | 11.3 | 0.00 | 0.23 | 0.00 | 60 | 1018.3 |
| 20260506160005 | 12 | 19 | 6.4 | 14.5 | 0.00 | 0.23 | 0.00 | 63 | 1018.0 |
| 20260506154516 | 12 | 53 | 3.2 | 11.3 | 0.00 | 0.23 | 0.00 | 66 | 1018.0 |
| 20260506153134 | 12 | 36 | 4.8 | 14.5 | 0.00 | 0.23 | 0.00 | 64 | 1018.2 |
| 20260506151559 | 11 | 50 | 4.8 | 9.7 | 0.00 | 0.23 | 0.00 | 66 | 1018.1 |
| 20260506150056 | 11 | 49 | 3.2 | 9.7 | 0.00 | 0.23 | 0.00 | 67 | 1017.7 |
| 20260506144554 | 10 | 54 | 4.8 | 9.7 | 0.00 | 0.23 | 0.00 | 70 | 1017.8 |
| 20260506143051 | 10 | 56 | 3.2 | 6.4 | 0.00 | 0.23 | 0.00 | 72 | 1017.9 |
| 20260506141549 | 10 | 56 | 1.6 | 8.0 | 0.00 | 0.23 | 0.00 | 76 | 1017.9 |
| 20260506140046 | 9 | 57 | 1.6 | 8.0 | 0.00 | 0.23 | 0.00 | 79 | 1018.1 |
| 20260506134542 | 8 | 59 | 0.0 | 11.3 | 0.00 | 0.23 | 0.00 | 83 | 1017.8 |
| 20260506133042 | 8 | 60 | 3.2 | 8.0 | 0.00 | 0.23 | 0.00 | 84 | 1017.7 |
| 20260506131537 | 7 | 61 | 0.0 | 8.0 | 0.00 | 0.23 | 0.00 | 88 | 1017.5 |
| 20260506130033 | 7 | 140 | 1.6 | 4.8 | 0.00 | 0.23 | 0.00 | 91 | 1017.5 |
| 20260506124531 | 6 | 140 | 1.6 | 11.3 | 0.00 | 0.23 | 0.00 | 91 | 1017.4 |
| 20260506123029 | 6 | 43 | 3.2 | 8.0 | 0.00 | 0.23 | 0.00 | 92 | 1017.4 |
| 20260506121527 | 6 | 51 | 1.6 | 6.4 | 0.00 | 0.23 | 0.00 | 92 | 1017.0 |
| 20260506120026 | 6 | 34 | 1.6 | 9.7 | 0.00 | 0.23 | 0.00 | 93 | 1017.0 |